OROVILLE DAM (ORO)

Elevation: 900' · FEATHER R basin · Operator: CA Dept of Water Resources/O & M

Provisional data, subject to change.
Query executed Tuesday at 20:37:52   clock

Select a sensor type for a plot of data.
Note: Reservoir Flows are daily averages.

Earlier

Date RES ELE    STORAGE    RES CHG    TOC STO    ABV TOC    OUTFLOW    INFLOW    EVAP    FNF    PPT INC    RAIN    PPTINC4   
 FEET   AF   AF   AF   AF   CFS   CFS   CFS   CFS   INCHES   INCHES   INCHES  
06/23/2014 737.91 1567421 -9893 3538000 -1970579 5944 1060 103 1050 0.00 18.84 0.00
06/24/2014 736.81 1557661 -9760 3538000 -1980339 6126 1265 105 988 e 0.00 18.84 0.00
06/25/2014 736.26 1552797 -4864 3538000 -1985203 3549 1244 102 988 e 0.00 18.84 0.00
06/26/2014 735.67 1547590 -5207 3538000 -1990410 3700 1115 84 1140 e 0.00 18.84 0.00
06/27/2014 735.08 1542397 -5193 3538000 -1995603 4372 1765 56 1140 e 0.00 18.84 0.00
06/28/2014 733.57 1529159 -13238 3538000 -2008841 8228 1688 89 1140 e 0.00 18.84 0.00
06/29/2014 732.07 1516088 -13071 3538000 -2021912 8084 1586 91 1140 e 0.00 18.84 0.00
06/30/2014 731.53 1511388 -4700 3538000 -2026612 3948 1719 91 1153 0.00 18.84 0.00
07/01/2014 731.09 1507576 -3812 3538000 -2030424 3352 1546 116 1325 0.00 18.84 0.00
07/02/2014 729.84 1496782 -10794 3538000 -2041218 7032 1706 116 1310 0.00 18.84 0.00
07/03/2014 728.57 1485872 -10910 3538000 -2052128 7039 1641 103 1246 e 0.00 18.84 0.00
07/04/2014 726.86 1471268 -14604 3538000 -2066732 8916 1613 103 1246 e 0.00 18.84 0.00
07/05/2014 725.14 1456681 -14587 3538000 -2081319 8986 1777 103 1441 0.00 18.84 0.00
07/06/2014 724.08 1447741 -8940 3538000 -2090259 6100 1666 116 1228 e 0.00 18.84 0.00
07/07/2014 723.06 1439174 -8567 3538000 -2098826 5299 1094 113 1227 e 0.00 18.84 0.00
07/08/2014 722.79 1436912 -2262 3538000 -2101088 2421 1469 103 1198 0.00 18.84 0.00
07/09/2014 722.31 1432897 -4015 3538000 -2105103 3486 1591 87 957 e 0.00 18.84 0.00
07/10/2014 721.33 1424724 -8173 3538000 -2113276 4992 871 126 638 0.00 18.84 0.00
07/11/2014 719.74 1411532 -13192 3538000 -2126468 7245 696 102 659 0.00 18.84 0.00
07/12/2014 717.75 1395140 -16392 3538000 -- 8818 658 104 543 0.00 18.84 0.00
07/13/2014 716.26 1382953 -12187 3538000 -- 7077 1080 106 696 0.00 18.84 0.00
07/14/2014 715.24 1374652 -8301 3538000 -- 5154 1010 82 634 0.00 18.84 0.00
07/15/2014 714.38 1367680 -6972 3538000 -2170320 4589 1203 129 765 0.00 18.84 0.00
07/16/2014 714.13 1365658 -2022 3538000 -2172342 2513 1582 89 948 0.00 18.84 0.00
07/17/2014 713.34 1359281 -6377 3538000 -2178719 4357 1262 79 825 0.00 18.84 0.00
07/18/2014 712.77 1354692 -4589 3538000 -2183308 3541 1266 79 658 e 0.00 18.84 0.00
07/19/2014 711.09 1341230 -13462 3538000 -2196770 7772 1100 74 931 0.00 18.84 0.00
07/20/2014 709.35 1327383 -13847 3538000 -2210617 7310 397 69 658 e 0.00 18.84 0.00
07/21/2014 708.76 1322710 -4673 3538000 -2215290 3323 1121 114 -- 0.00 18.84 0.00
07/22/2014 -- -- -- -- -- -- -- -- -- -- -- 0.00

Later | Latest

Warning! This data is preliminary and subject to revision.

Download Data Now Download Data Now | Show ORO Map | Plot ORO Data | 1 Month ORO Data | Real-Time ORO Data | ORO Info